Theta_e
294 288 285 285 288 290 291 291 292 292 291 289 288 287 286 286 286 289 290 294 293 291 288 291 289 287 289 291 294 294 292 292 291 293 292 292 291 291 291 291 291 291 291 293 293 293 293 294 294 295 295 294 294 295 295 295 295 295 296 296 295 297 298 298 298 299 302 304 304 304 305 303 304 305 306 308 307 308 307 307 308 308 308 308 308 308
294 287 286 289 292 292 292 292 291 289 289 288 287 285 286 285 286 289 291 291 292 291 286 285 289 289 291 293 293 293 293 291 291 292 291 291 291 291 290 290 290 291 292 292 292 292 292 293 293 294 294 294 292 293 293 293 294 294 295 295 295 296 296 297 297 297 299 300 300 300 300 300 301 304 305 304 304 304 305 304 303 303 305 307 307 306
287 286 290 292 293 292 291 291 290 288 288 287 286 285 284 286 287 290 291 291 290 291 287 285 289 289 292 292 292 292 291 291 292 292 291 290 290 290 290 290 290 290 289 290 290 291 291 291 292 292 293 293 293 292 292 293 293 293 294 294 294 295 295 295 296 297 296 297 299 300 299 300 299 299 299 299 298 300 302 301 300 299 300 302 303 305
285 286 291 294 293 291 290 290 290 289 289 286 287 285 285 287 287 284 287 288 290 290 288 287 287 289 290 291 291 291 291 291 291 291 290 291 290 289 289 289 289 288 288 288 289 289 290 290 291 291 291 291 292 292 292 292 292 293 293 293 293 294 294 294 295 296 296 296 296 297 297 298 298 296 297 298 299 298 298 300 300 300 298 299 299 298
290 291 295 294 291 291 290 290 289 288 287 286 288 287 287 287 287 288 288 288 288 288 288 287 286 285 289 288 288 290 291 291 291 290 290 290 290 290 290 289 289 288 288 288 288 288 288 289 289 289 290 291 290 291 291 291 291 292 292 292 292 293 293 294 294 295 295 296 296 296 297 297 296 297 297 297 296 296 296 297 298 299 297 297 296 296
289 294 295 292 290 289 289 289 289 289 285 286 286 290 290 289 288 286 287 288 283 283 284 287 279 276 282 286 287 288 288 288 289 288 288 289 289 289 288 288 288 289 288 288 287 287 287 288 288 289 289 289 290 290 290 291 291 291 292 292 292 292 293 293 293 294 294 294 294 294 293 292 292 292 293 293 293 293 294 294 295 296 297 297 297 294
291 294 293 293 290 288 288 288 288 290 286 285 288 289 291 289 288 287 286 285 281 279 286 286 282 276 281 284 286 287 286 286 287 287 287 288 288 288 288 288 287 287 287 288 287 287 287 287 287 288 288 288 289 289 290 290 290 291 291 291 292 292 292 292 292 293 293 292 292 292 291 291 291 290 291 291 292 292 293 293 294 294 295 295 296 297
291 292 290 291 290 288 287 287 289 291 287 284 286 287 288 287 287 285 285 286 282 282 283 285 283 281 279 284 287 287 286 285 286 286 286 287 287 287 287 287 287 287 287 286 286 287 287 286 286 286 287 287 288 288 289 289 290 290 290 291 291 291 291 291 292 291 292 291 291 291 291 291 290 290 290 291 291 292 292 292 292 293 293 293 294 294
291 289 289 289 288 287 288 292 289 291 289 286 287 286 286 287 286 284 285 282 282 282 279 280 284 280 277 281 286 287 284 283 284 285 285 286 286 286 286 287 286 286 286 286 286 286 286 286 286 286 286 287 287 288 288 288 288 289 289 290 290 290 290 291 291 291 291 291 290 290 289 289 290 290 290 290 291 291 291 291 291 291 291 292 292 292
291 293 290 291 290 288 290 287 289 292 288 289 287 286 285 285 284 283 280 283 279 279 277 281 283 278 278 280 283 284 284 283 284 285 285 286 286 286 286 286 286 286 285 286 285 285 285 286 286 286 286 286 286 287 288 288 288 288 288 289 289 289 290 290 290 290 290 290 290 289 288 288 288 289 289 289 289 289 289 289 289 290 290 290 290 291
291 293 293 291 290 291 287 288 287 290 290 288 287 286 283 282 281 279 279 278 277 274 280 282 283 283 276 280 283 283 284 285 285 284 285 285 285 286 286 285 285 285 285 284 284 284 285 285 285 285 285 285 285 286 286 286 287 287 287 287 287 287 288 289 288 288 288 289 289 288 288 288 287 287 288 287 287 288 288 288 288 288 288 289 289 289
288 289 291 289 292 290 289 288 287 286 286 288 285 282 284 282 279 276 273 277 273 272 276 280 283 283 275 277 281 283 285 287 286 284 285 284 284 285 285 285 285 284 284 284 283 284 284 284 284 284 284 284 284 285 285 285 285 286 286 286 286 286 286 287 287 287 287 287 287 287 287 287 287 287 286 286 285 286 286 286 286 287 287 287 288 288
285 287 287 289 293 293 289 288 286 284 285 285 283 284 279 273 273 273 273 272 272 275 277 279 282 280 281 282 283 283 284 287 286 287 286 285 284 284 284 284 284 284 283 283 282 282 283 283 283 283 283 284 283 283 283 284 284 284 284 285 285 285 285 286 286 285 285 285 285 286 286 286 286 286 285 285 285 285 285 285 285 285 285 285 286 286
284 282 286 288 290 291 290 287 282 285 284 284 285 280 276 272 271 266 268 267 269 274 277 280 282 280 280 281 283 282 284 286 286 286 286 285 285 284 284 284 283 283 282 282 282 282 282 283 283 283 283 283 283 282 283 283 283 283 283 283 284 284 284 285 285 285 285 285 285 285 285 285 285 284 284 284 284 284 284 285 284 284 284 284 284 285
276 278 284 287 286 289 291 291 289 284 282 285 283 286 282 275 269 268 267 272 273 275 276 277 276 272 276 279 281 283 283 285 286 286 285 284 284 284 283 283 282 282 282 282 282 282 282 283 282 283 283 283 283 282 282 282 282 282 283 283 283 283 283 284 284 284 284 284 284 284 284 284 285 284 283 283 284 284 283 283 283 283 283 283 284 284
283 282 283 288 289 290 290 290 287 284 283 283 281 283 278 280 279 276 272 269 268 272 273 274 276 276 278 282 283 283 283 284 284 284 284 283 283 283 282 282 282 282 282 281 281 282 282 282 282 282 282 283 283 282 281 281 281 282 282 282 282 282 282 283 283 283 283 283 283 283 283 283 284 284 284 283 283 283 283 283 282 282 282 283 283 284
284 281 285 290 289 288 289 290 291 288 281 282 284 281 284 285 285 278 275 274 273 273 275 271 279 280 282 283 282 282 283 282 282 282 282 282 282 281 282 282 282 282 281 281 281 280 281 281 281 281 282 282 283 284 283 281 281 282 282 281 281 281 281 282 282 282 282 283 282 282 282 282 282 282 281 282 281 282 282 282 282 282 282 282 283 283
283 281 284 286 287 289 285 289 289 288 288 285 280 284 285 287 284 280 273 270 271 271 273 274 275 276 278 273 280 280 279 281 281 282 282 282 281 282 282 282 282 282 282 281 281 281 280 281 282 283 283 282 283 284 285 285 284 283 283 283 283 283 283 284 284 284 284 284 282 281 281 281 282 282 282 282 281 281 281 281 281 280 281 281 282 282
288 281 283 286 286 287 286 288 288 288 288 285 283 286 286 278 278 279 274 271 269 268 269 272 275 276 278 278 278 279 280 281 281 281 281 282 282 282 282 283 282 282 283 282 282 282 283 283 283 282 282 282 283 285 284 285 284 284 283 284 284 284 285 284 285 285 285 284 283 283 282 281 282 283 282 281 281 281 281 282 282 282 281 281 280 281
287 281 280 285 287 287 285 284 280 283 287 287 287 286 283 281 275 274 278 273 274 268 271 266 272 275 279 280 280 282 282 282 282 281 282 282 283 283 283 283 283 283 283 282 282 282 282 281 280 280 281 282 283 284 286 286 286 286 286 284 284 284 283 283 284 284 284 284 285 284 283 283 283 282 282 282 281 282 280 280 281 282 282 282 282 281
286 285 276 283 283 286 283 284 282 283 281 284 284 281 283 281 281 280 279 276 276 268 268 269 270 273 275 281 282 283 284 283 283 282 283 283 284 284 284 283 283 283 282 282 281 281 282 283 282 282 283 284 284 284 285 285 286 286 285 283 283 283 283 283 283 284 283 283 283 283 283 283 282 282 282 282 281 281 281 281 281 281 281 281 281 281
283 284 282 281 282 282 281 283 284 284 286 283 285 283 284 281 278 276 276 280 273 276 269 271 273 274 279 285 284 283 284 284 284 284 284 284 284 284 283 283 283 283 282 282 282 283 283 283 284 283 283 284 283 283 282 283 282 282 283 283 282 281 281 281 281 281 282 282 282 281 281 280 280 280 280 280 280 280 281 281 281 281 281 281 281 280
286 281 281 281 282 283 283 288 284 286 284 284 285 283 284 281 280 274 275 273 273 275 272 271 272 275 282 281 282 283 284 285 285 285 284 285 284 284 284 284 284 284 284 284 284 284 284 284 284 283 282 282 282 282 281 281 281 281 281 280 280 281 281 280 281 280 280 281 281 280 280 280 280 279 279 279 279 279 280 280 280 280 280 281 281 281
291 281 280 282 281 282 283 284 284 284 287 286 284 282 283 280 281 280 277 273 273 272 274 273 275 280 284 282 280 281 282 284 285 285 285 285 285 285 285 284 283 283 284 285 284 284 284 283 283 283 282 283 282 281 280 280 280 280 280 280 280 280 280 280 279 280 280 280 279 279 279 278 279 278 279 279 280 279 279 279 280 280 280 280 280 280
283 283 283 278 279 279 281 283 284 285 283 279 282 282 280 281 281 280 279 279 278 279 279 276 273 280 285 283 283 283 284 285 285 285 285 285 285 285 285 284 284 284 284 283 283 283 283 282 282 282 282 282 281 280 279 279 279 279 278 278 279 279 279 279 279 279 279 279 279 279 278 278 278 278 279 278 279 279 279 279 280 280 280 280 280 280
287 283 281 277 275 274 273 274 273 278 283 282 280 280 284 283 282 281 277 277 276 281 282 277 278 284 285 284 284 283 282 284 284 284 284 284 285 284 284 284 283 283 283 283 283 282 282 282 282 280 280 280 280 280 279 278 278 278 278 278 278 278 279 279 279 279 279 279 279 279 279 279 279 279 279 279 279 279 279 279 279 279 279 279 279 279
282 283 283 283 281 279 279 275 280 282 281 277 279 282 282 282 282 282 280 278 277 279 276 277 279 278 281 283 283 282 281 283 284 284 284 283 284 285 284 284 283 283 283 282 282 282 281 280 280 281 280 280 279 278 278 278 278 278 279 280 279 279 279 279 279 279 278 278 278 278 278 278 278 278 278 278 279 279 279 279 279 279 279 279 279 278
280 281 282 282 282 283 282 281 283 284 281 280 279 279 281 280 279 280 280 277 283 278 275 283 283 278 280 283 283 283 283 283 283 283 283 282 282 282 282 281 283 280 279 279 278 279 280 280 280 279 278 277 277 277 278 278 278 279 278 279 278 278 278 279 278 277 277 277 277 277 277 278 278 278 278 278 278 278 278 278 278 278 279 279 278 278
279 279 278 281 278 280 281 282 282 283 283 282 282 281 281 281 277 276 274 281 281 278 277 282 282 279 281 282 280 281 282 282 282 282 283 284 283 280 279 280 280 279 278 277 278 278 279 278 277 277 277 277 277 278 278 278 278 278 278 278 277 277 277 276 276 276 276 276 276 276 276 276 277 277 277 277 277 277 277 277 277 277 277 277 277 277
281 275 275 278 275 279 279 279 281 280 279 279 278 279 279 279 277 277 276 280 280 278 280 279 278 278 280 282 280 280 281 281 280 279 279 280 280 280 280 280 279 279 278 278 278 278 277 277 276 276 277 277 277 277 278 278 278 278 277 276 276 275 276 275 275 274 275 274 274 275 275 275 275 275 275 275 275 275 275 275 275 274 274 274 274 275
285 279 282 277 276 272 276 280 279 276 275 274 276 277 277 277 277 278 278 278 277 277 278 278 277 277 282 279 280 278 278 277 277 277 279 279 280 279 279 279 278 277 277 277 277 277 277 276 277 277 277 277 277 277 278 277 277 276 275 275 274 274 274 274 273 273 273 273 273 274 274 274 274 274 273 273 274 273 273 272 272 272 272 272 273 273
281 277 280 278 275 274 276 277 278 276 275 273 273 275 276 275 273 276 274 277 276 274 277 275 272 275 280 275 276 275 275 277 277 276 275 276 277 278 277 276 276 276 276 276 276 277 277 277 277 277 277 277 277 277 276 276 275 274 273 273 273 273 273 273 272 272 272 272 273 273 272 272 272 272 272 272 271 271 270 270 270 269 269 269 269 270
279 276 275 274 274 273 276 275 274 272 273 273 275 278 278 276 277 277 277 277 277 278 272 270 273 278 279 279 277 275 274 275 275 275 275 274 275 276 276 276 276 276 277 276 277 277 277 277 277 277 277 276 276 275 274 274 273 272 272 272 272 272 272 271 271 271 271 271 271 271 271 271 271 270 269 269 268 268 268 267 267 267 267 266 267 267
280 280 275 277 273 272 271 270 270 268 265 268 277 277 277 274 275 274 274 276 276 277 274 276 277 276 273 275 276 275 274 275 276 276 276 277 276 275 275 275 275 275 275 276 277 277 277 277 277 277 276 276 274 273 273 272 271 272 272 271 270 270 271 270 270 270 270 270 270 270 270 269 268 267 267 267 266 266 265 265 264 265 265 265 265 265
277 278 275 276 273 271 270 271 270 267 269 278 278 278 276 276 274 275 276 276 273 276 275 276 276 276 277 278 278 278 278 275 275 276 276 275 276 276 276 276 276 275 276 276 276 276 277 277 276 276 274 273 272 272 271 271 270 270 270 270 269 270 269 269 269 268 269 268 269 268 267 267 266 265 265 265 264 264 263 263 263 263 264 264 264 263
278 278 274 275 274 272 270 272 266 267 278 278 278 276 277 275 275 275 272 275 276 276 277 276 277 278 278 277 276 275 275 275 275 275 275 275 275 276 275 276 275 276 276 277 277 277 276 276 275 274 273 272 271 270 270 269 269 269 268 269 268 268 267 267 266 267 267 266 266 266 266 265 264 264 263 263 263 262 262 262 262 262 262 262 262 262
283 278 276 274 277 269 272 270 272 275 275 278 278 274 276 274 273 272 267 273 276 276 276 276 277 277 276 275 274 274 274 274 275 274 274 275 276 276 277 277 276 277 277 277 278 277 276 275 274 273 272 270 270 269 268 269 268 267 266 266 266 266 265 266 265 265 265 265 265 264 264 264 263 262 262 262 261 261 261 261 261 261 261 261 261 261
280 279 278 276 271 276 271 270 268 265 265 271 273 276 276 277 275 275 273 270 271 269 272 276 275 274 272 273 273 273 273 273 271 273 276 276 276 277 276 277 276 276 277 277 276 275 273 273 272 272 270 269 268 268 268 267 266 265 265 265 265 264 264 264 264 264 264 263 264 264 263 263 262 261 261 261 260 260 261 261 261 260 261 260 260 259
276 279 277 277 272 267 266 268 267 264 267 269 269 271 275 275 275 270 268 265 269 269 269 273 272 271 273 274 273 273 271 266 270 274 277 276 276 276 277 276 276 277 277 276 275 273 272 271 271 270 269 268 266 267 266 265 264 264 263 264 263 263 263 263 263 263 262 263 263 263 262 262 261 261 260 260 260 260 259 259 259 260 260 260 259 259
272 272 274 272 271 271 267 266 266 265 263 267 266 274 274 274 274 269 260 259 267 270 269 272 274 273 274 274 274 273 273 267 271 276 276 277 277 276 277 276 275 275 274 274 273 273 272 271 269 268 266 265 266 265 264 264 263 262 263 262 263 262 262 262 262 263 263 263 262 262 261 261 260 260 259 259 259 259 259 259 259 259 259 259 259 258
271 269 274 271 272 272 273 268 267 268 270 269 271 274 273 274 272 262 263 266 272 272 272 274 276 275 275 273 274 270 274 278 278 276 275 276 275 275 275 276 276 275 273 272 272 273 270 269 268 267 265 265 265 264 263 262 261 261 261 262 261 260 262 262 262 262 261 262 261 260 260 260 259 259 259 259 259 259 259 259 259 258 258 257 258 257
265 268 269 272 270 270 271 269 269 272 273 274 274 276 276 273 263 265 272 271 273 273 273 275 275 275 275 275 275 276 278 277 274 274 275 275 277 276 275 274 272 272 272 272 272 269 268 267 266 265 264 264 264 263 262 260 260 260 261 260 259 259 262 262 261 261 259 260 260 259 259 258 258 258 258 258 258 257 258 258 258 257 257 257 257 256
268 266 266 269 271 271 270 267 268 263 272 277 275 274 276 268 269 274 274 273 273 274 274 274 275 276 276 275 276 277 277 274 274 274 275 275 275 275 273 273 272 272 270 268 267 267 267 265 264 264 264 263 262 262 262 258 258 258 259 258 259 261 261 261 260 259 259 259 258 258 258 257 257 257 257 257 258 257 257 257 257 257 257 256 256 256
270 261 256 263 272 265 268 265 266 273 275 275 277 270 271 277 277 275 275 273 274 273 274 275 275 276 276 277 276 275 275 275 273 273 273 274 274 275 274 273 272 271 269 267 267 266 264 264 263 263 262 262 261 261 261 259 257 258 257 258 261 261 260 258 258 258 257 257 257 256 256 257 257 257 257 257 257 257 256 256 256 256 256 256 256 256
272 269 267 265 268 267 266 269 273 275 276 276 278 278 277 279 280 275 276 277 276 275 275 275 276 276 276 276 277 276 275 275 275 275 275 275 275 273 273 272 271 269 268 266 265 264 262 263 262 261 260 261 260 260 259 258 257 256 255 259 259 258 258 258 256 256 256 255 255 256 256 256 256 256 256 256 256 256 256 256 256 255 256 256 256 255
272 274 271 270 269 272 272 273 274 274 274 275 278 280 279 278 276 275 276 276 275 277 276 276 277 277 276 276 275 274 275 276 275 274 274 275 274 273 271 269 268 267 266 264 263 262 261 261 259 258 258 260 260 259 258 258 257 255 257 259 259 258 257 256 255 255 256 255 256 256 256 256 256 256 256 256 256 256 256 256 256 256 256 256 255 255
272 272 271 269 270 268 265 272 273 275 274 275 278 279 278 277 276 276 276 277 278 278 276 276 277 277 277 276 276 277 276 276 275 275 274 274 272 271 270 269 268 266 264 263 263 261 260 258 258 257 257 256 258 258 258 256 257 257 258 257 259 258 256 254 255 255 256 255 256 256 256 255 256 256 256 256 256 256 256 256 256 256 256 256 255 255
271 274 271 272 270 270 267 272 273 276 277 277 277 277 277 278 278 276 277 278 278 278 277 278 276 275 274 273 275 275 276 276 275 274 273 273 272 271 270 269 266 264 263 263 262 259 258 257 258 257 256 257 259 259 258 256 256 256 256 256 257 255 253 254 255 255 255 255 255 256 256 256 257 257 256 256 256 256 256 256 256 256 256 256 256 256
273 274 263 269 270 272 273 274 274 274 274 276 276 275 277 277 278 277 277 277 276 276 275 274 275 277 276 277 276 275 275 275 275 275 274 272 271 270 270 268 266 264 262 261 259 258 259 257 256 256 256 256 258 257 256 255 255 255 256 258 256 254 252 254 255 255 254 255 255 255 256 256 256 256 256 256 256 256 256 256 256 257 257 259 260 259
271 272 272 269 266 265 269 274 276 267 270 276 277 278 277 277 276 277 276 275 275 275 275 275 274 275 276 277 277 276 275 276 274 273 273 273 273 271 268 265 263 262 261 260 259 257 257 256 256 255 256 257 257 256 255 254 255 255 257 255 254 254 253 254 255 254 254 255 255 255 255 256 256 255 255 255 255 255 256 260 263 263 261 260 264 268
274 275 274 271 270 269 275 277 277 277 276 277 277 276 277 277 276 276 276 276 276 276 276 276 276 273 272 273 274 275 275 275 274 272 272 271 270 268 266 264 262 261 260 259 257 255 255 256 256 255 254 255 255 255 254 254 254 255 256 256 256 255 253 253 254 254 255 255 255 256 256 255 255 255 255 255 255 255 255 255 257 263 265 265 266 267
Wind_Speed
2 4 6 7 9 11 11 13 14 13 6 2 0 1 6 5 6 6 5 9 0 3 5 7 4 2 7 9 9 3 2 4 4 7 7 7 7 7 8 9 9 10 7 4 5 6 6 8 8 8 10 11 13 14 14 14 14 13 11 12 13 10 11 10 9 8 8 7 6 7 7 5 5 6 6 7 6 6 5 3 3 2 2 1 2 3
2 6 6 10 12 13 14 13 9 4 1 4 4 3 7 3 9 6 5 3 2 2 3 0 2 6 7 8 8 7 8 8 4 9 8 9 7 7 8 9 9 6 4 5 8 9 9 11 12 12 12 13 17 14 14 14 12 12 12 13 11 10 11 10 8 6 7 5 2 3 4 4 7 8 8 8 8 7 5 5 4 3 1 1 0 1
3 8 10 15 14 6 3 1 3 5 6 3 5 5 4 8 5 7 7 2 1 1 7 1 2 7 10 4 9 10 9 6 7 7 7 8 7 7 7 8 7 7 6 7 8 9 10 11 12 11 11 12 11 11 12 11 12 13 12 11 10 11 10 10 10 9 6 5 6 6 5 5 4 4 4 4 5 7 7 5 6 4 2 1 1 1
4 5 14 15 4 4 5 3 2 2 2 4 2 1 7 4 2 6 4 1 2 1 4 3 5 7 5 8 10 7 7 7 9 11 9 5 6 7 6 5 7 7 7 10 9 9 10 10 11 11 12 11 11 12 12 12 12 10 11 11 11 11 11 11 11 9 7 5 5 6 7 7 8 4 5 8 10 11 11 10 7 6 6 3 2 2
12 8 10 8 4 6 8 7 4 5 7 3 6 6 6 6 6 8 6 3 3 2 1 2 4 6 8 3 4 5 6 9 7 9 9 7 6 5 6 8 6 7 6 7 8 9 9 11 11 10 9 9 12 11 11 11 10 8 10 10 10 10 10 10 11 11 9 11 11 9 9 9 9 10 11 10 10 10 9 10 10 9 7 4 3 2
8 9 0 2 4 4 4 7 8 6 4 3 6 11 10 7 6 4 2 3 6 3 1 1 3 4 2 1 6 4 5 7 4 7 6 4 4 4 8 7 5 6 5 5 6 7 7 8 8 10 10 11 10 11 9 8 9 9 9 10 10 10 11 11 11 11 10 10 10 11 11 10 8 9 10 10 8 9 9 7 6 11 10 10 8 4
8 6 4 6 5 5 6 6 5 7 6 1 7 7 10 7 4 2 1 3 1 2 1 2 0 7 6 2 5 4 5 6 3 4 3 3 3 4 5 5 5 5 5 5 6 6 9 8 9 10 10 9 10 8 6 8 9 10 9 9 10 10 10 10 11 11 9 10 9 9 8 7 7 7 5 4 5 7 7 7 11 9 10 11 11 10
3 8 6 3 4 5 4 5 5 9 6 4 2 4 4 4 3 3 3 4 4 1 5 1 1 6 5 5 4 5 8 5 4 3 3 3 3 4 4 4 4 4 4 4 5 6 6 6 7 8 7 8 7 5 6 8 9 10 10 10 11 10 11 11 10 12 11 10 9 10 9 8 8 8 6 7 7 6 7 10 10 9 10 10 10 11
4 1 2 5 5 5 7 9 2 8 6 4 1 5 3 4 3 3 2 1 1 1 8 1 0 1 5 5 2 7 9 2 3 4 3 3 2 4 4 4 4 4 4 4 6 6 6 6 6 5 7 5 8 8 8 8 8 7 8 9 11 13 12 11 12 12 12 10 10 9 8 10 8 7 7 6 7 8 8 10 10 10 9 10 10 10
2 1 4 7 7 7 6 1 7 10 5 3 3 5 6 6 5 2 2 2 2 1 7 5 5 5 7 3 5 3 1 7 7 6 5 3 3 3 4 4 4 4 4 4 4 5 5 5 5 4 5 9 8 6 6 7 8 9 8 11 13 13 10 10 12 11 12 11 9 11 10 10 9 7 7 7 9 9 8 9 9 8 9 9 10 10
3 3 5 3 6 5 4 0 2 3 2 4 5 2 3 7 3 3 6 2 2 4 8 9 9 9 6 4 8 10 6 5 8 3 3 3 2 3 3 3 3 3 3 4 4 4 4 4 4 5 8 6 7 7 9 10 10 9 10 10 13 11 10 11 11 11 11 10 10 10 9 10 10 9 10 11 12 10 11 11 10 9 8 7 8 8
2 2 0 2 2 3 3 3 4 2 2 4 2 3 3 4 7 3 4 4 1 8 6 7 9 8 8 5 3 3 5 9 16 15 13 9 6 5 4 3 3 3 3 3 4 4 4 5 6 6 8 7 7 9 10 9 8 9 8 8 11 12 11 10 9 10 10 9 10 9 10 11 10 10 10 11 11 10 10 9 9 7 7 8 7 8
3 6 3 6 2 7 1 2 1 4 3 5 5 5 3 4 5 2 2 2 7 9 2 2 7 2 11 5 1 4 6 5 6 12 15 12 9 6 4 4 3 3 3 3 3 3 4 6 6 7 6 7 9 8 7 8 7 6 7 8 12 12 10 10 10 11 11 11 11 10 10 9 9 10 10 9 9 7 8 7 8 9 8 8 9 9
6 2 2 4 4 3 6 6 1 0 1 6 6 5 5 1 2 4 5 2 5 6 5 2 2 3 2 2 1 3 4 0 7 7 7 9 10 8 5 4 3 3 3 3 3 4 4 4 4 4 6 6 6 7 8 7 8 7 8 8 10 9 8 8 10 10 11 11 10 9 9 9 8 9 8 7 7 6 6 6 6 6 6 6 6 7
1 4 5 5 4 2 6 9 10 6 7 9 3 10 9 8 5 5 5 6 7 7 1 3 2 6 4 2 3 2 2 2 6 7 5 5 5 5 4 4 4 4 3 3 4 4 4 4 3 4 4 5 5 6 7 6 6 5 5 6 8 10 9 9 8 8 9 8 8 8 8 8 7 7 7 6 6 6 7 6 7 6 6 6 7 6
7 6 5 4 1 3 9 3 6 5 3 1 3 5 5 7 5 6 6 3 2 2 3 2 5 1 2 0 1 2 3 4 5 6 6 6 4 5 4 4 4 4 4 3 4 4 3 3 3 4 4 4 5 5 5 5 3 4 4 6 8 8 6 6 7 6 5 5 6 6 7 6 5 5 5 6 5 5 4 4 5 6 5 6 6 6
0 4 1 4 3 5 5 2 3 4 5 2 5 6 8 3 5 0 2 0 2 2 9 2 1 1 0 1 1 1 5 3 4 4 5 5 5 4 5 4 4 4 4 4 4 3 3 3 4 4 4 4 5 4 4 4 4 5 7 7 7 7 5 5 4 4 4 4 5 5 4 4 4 4 4 3 2 2 3 3 3 3 5 5 5 6
5 6 2 3 5 4 0 0 1 3 3 6 2 8 1 2 3 3 5 2 1 6 6 2 6 2 2 6 3 1 4 5 4 6 6 5 4 6 5 5 5 5 4 4 3 3 3 3 3 3 3 2 2 2 3 3 3 3 4 5 6 5 5 3 3 3 4 4 4 2 2 1 0 1 0 0 1 1 1 2 1 2 3 3 3 3
2 6 4 4 3 4 2 1 2 1 1 4 3 2 3 4 2 2 5 4 2 4 4 4 2 3 8 6 4 8 10 12 9 6 6 6 6 7 5 5 5 4 5 5 4 4 3 3 3 2 2 1 1 1 1 2 3 4 3 3 3 3 3 3 4 4 4 3 2 2 3 3 4 3 3 3 3 2 4 5 4 4 4 3 3 3
1 4 5 1 2 1 1 3 5 4 2 0 0 0 0 1 2 3 6 4 3 5 1 6 3 7 5 6 16 17 16 14 11 8 10 9 10 9 7 7 7 6 6 5 4 4 4 4 4 4 3 3 2 2 1 1 1 1 1 2 1 1 0 1 1 1 1 1 1 3 3 3 3 3 3 4 4 5 4 5 5 6 7 7 7 6
3 2 5 1 2 1 2 3 7 8 5 0 0 2 1 0 3 2 1 4 4 3 4 3 7 5 3 3 9 14 15 16 16 13 10 10 9 8 8 7 7 6 6 5 5 4 4 4 3 3 2 1 0 0 1 0 0 1 1 3 3 2 2 2 2 1 2 1 2 2 3 4 3 4 3 3 4 3 4 5 5 5 5 5 7 6
0 1 6 1 1 6 6 3 5 4 7 7 9 8 9 4 4 6 10 2 1 4 4 3 11 4 4 0 3 5 6 10 9 12 12 9 10 8 6 6 7 7 5 5 5 5 4 4 4 2 1 0 0 1 2 2 1 3 3 4 3 3 3 3 3 2 3 2 2 2 3 4 4 4 4 4 4 4 4 5 5 5 5 5 7 5
4 2 2 8 7 8 6 0 1 1 2 2 5 4 4 2 4 3 8 6 1 3 2 2 2 8 2 3 2 5 10 13 13 10 10 9 8 8 8 7 6 7 7 7 6 6 5 4 4 4 3 3 3 3 3 3 3 3 3 3 2 1 4 3 4 3 3 3 3 3 3 4 4 4 5 5 5 5 5 5 5 5 5 6 7 6
5 2 3 6 4 3 3 3 3 3 1 0 1 2 2 3 5 6 4 4 3 2 1 1 5 3 1 3 1 5 5 7 8 9 10 7 6 7 8 8 8 6 5 5 6 5 6 4 3 3 3 4 4 4 4 4 3 3 3 3 2 3 4 4 3 3 3 3 3 3 3 3 4 4 5 6 6 6 6 6 6 5 6 6 6 7
2 2 4 4 4 3 2 1 2 2 3 2 2 1 2 2 2 1 2 0 1 5 5 4 12 5 1 3 2 5 7 8 8 4 4 6 4 6 7 7 6 7 6 6 6 6 4 3 4 5 5 4 4 4 3 3 3 2 2 2 3 4 4 4 4 4 4 3 4 4 4 5 4 5 5 5 6 6 6 6 7 7 7 8 9 8
4 4 6 6 10 11 11 8 5 5 8 1 0 0 1 4 4 3 4 2 6 4 9 3 7 2 1 1 1 1 4 5 2 2 3 4 8 8 7 7 8 7 7 7 6 4 5 6 5 4 5 4 4 5 3 1 3 4 3 4 2 4 5 6 4 5 5 6 6 6 7 7 7 8 8 8 7 7 6 6 6 7 6 5 8 9
2 1 3 6 11 14 9 2 2 2 2 2 2 3 3 2 3 4 3 2 8 2 3 4 5 1 3 3 3 4 1 5 5 5 6 4 5 6 7 7 8 7 8 8 7 6 5 4 6 6 5 5 0 3 3 3 3 4 4 6 7 6 6 7 7 7 8 7 7 7 8 8 9 8 8 8 8 8 8 9 9 9 9 8 7 8
1 2 5 6 6 5 2 4 3 3 3 3 2 4 5 5 4 6 7 6 3 1 11 7 6 4 9 9 8 8 8 6 5 5 5 4 5 9 8 6 6 5 4 4 4 5 7 8 6 6 2 1 2 3 4 3 4 4 4 4 4 5 5 6 5 5 5 4 5 5 6 6 6 6 7 7 8 8 9 9 10 10 9 9 10 11
4 6 3 3 4 1 2 3 1 2 2 2 4 5 8 6 5 8 5 5 6 8 13 8 3 6 8 8 4 9 9 10 9 9 9 10 6 5 5 7 7 7 5 5 7 7 7 6 5 3 2 2 4 5 4 3 2 2 4 4 4 4 6 4 4 4 4 4 5 5 5 5 5 5 6 7 8 9 10 10 9 10 10 10 11 10
3 4 4 3 3 1 3 5 3 5 2 1 5 8 8 8 5 4 4 7 11 9 7 8 7 10 9 12 3 7 7 6 6 3 1 4 7 10 7 7 7 7 6 7 7 7 5 5 4 4 5 5 5 5 4 4 4 4 5 5 5 5 5 4 5 5 5 6 5 6 6 7 6 7 8 9 9 9 9 9 10 10 11 12 11 11
3 4 6 1 1 2 0 2 2 4 2 3 7 9 10 4 2 6 7 9 4 7 10 10 11 14 13 2 3 2 2 1 1 4 7 7 7 8 8 7 7 6 7 6 6 6 6 5 6 6 6 5 5 4 4 4 4 4 4 3 3 4 4 4 5 5 5 7 6 7 7 7 7 8 8 8 8 8 9 10 10 10 11 11 11 12
1 4 2 2 3 3 0 3 0 4 3 2 7 14 13 6 5 8 9 6 7 10 12 7 7 12 11 3 0 2 4 7 7 5 5 5 6 7 8 7 7 7 7 6 6 6 6 6 7 7 6 5 4 4 4 4 3 4 3 3 3 4 3 4 4 5 5 5 6 7 7 7 8 7 7 7 8 9 8 9 10 10 10 11 11 12
2 4 3 1 2 3 3 3 2 3 5 10 16 18 9 9 11 7 6 7 11 9 6 8 12 9 10 4 2 2 4 4 4 5 4 4 6 8 8 7 7 7 8 7 8 9 9 8 7 7 6 4 5 5 3 4 4 4 3 3 3 3 4 4 4 5 5 5 5 6 6 6 7 7 8 7 8 9 9 10 11 11 11 12 10 11
3 4 3 2 4 2 5 3 2 0 8 14 2 4 5 5 7 9 10 11 7 7 6 9 11 8 4 4 6 6 6 8 8 6 4 9 8 5 5 5 6 6 5 7 8 8 6 5 5 5 5 5 5 5 4 4 4 3 2 2 2 3 3 4 4 4 5 5 5 5 5 6 6 7 7 8 9 9 10 10 11 10 10 10 10 10
3 2 4 2 3 3 2 4 3 12 15 2 2 2 6 7 6 9 12 9 6 7 7 7 7 7 9 8 8 9 8 2 3 6 4 3 5 6 7 7 7 6 8 8 6 6 7 8 6 6 6 6 6 4 4 4 3 1 1 2 3 2 3 3 3 3 4 4 4 5 5 7 7 7 8 8 9 9 10 10 10 10 10 9 11 11
4 5 2 1 4 3 4 7 8 11 3 5 7 2 1 3 3 1 5 7 10 10 11 10 11 11 8 7 5 0 4 4 1 1 3 3 5 5 4 5 5 6 8 8 9 8 9 8 9 8 7 4 5 4 4 4 2 3 3 2 3 2 2 3 3 4 3 3 4 5 6 6 6 7 7 9 9 9 11 10 9 11 9 10 10 8
7 2 1 3 2 5 4 7 12 7 13 16 16 3 6 5 5 7 6 10 9 7 7 7 10 9 7 4 1 3 3 3 2 2 2 4 4 5 7 7 7 8 8 7 8 9 6 5 6 7 7 5 4 4 4 3 3 3 3 3 3 3 3 2 3 2 2 3 4 5 5 6 6 7 8 8 9 10 10 10 10 9 6 11 9 11
3 10 4 5 4 5 8 8 4 4 9 17 3 1 2 1 4 5 5 9 1 4 4 8 8 7 2 1 4 3 3 3 3 6 5 4 3 5 2 4 5 5 5 6 4 6 6 5 6 5 7 7 6 5 3 2 2 2 3 3 3 3 3 2 2 2 2 3 4 5 5 6 6 8 8 8 9 11 10 9 9 8 7 9 11 11
4 1 3 10 4 3 2 7 9 7 11 4 1 3 1 1 6 4 3 6 4 4 4 6 5 2 6 7 5 4 4 3 7 7 7 6 5 4 5 4 6 6 7 9 11 10 7 6 7 7 6 6 5 3 2 2 2 2 2 2 2 2 2 3 2 2 3 5 5 5 6 5 6 7 8 9 10 9 11 10 10 9 8 7 9 10
5 1 4 3 7 8 5 6 11 5 6 3 5 2 3 3 3 6 2 7 2 5 5 5 6 7 7 6 7 7 8 9 7 9 6 9 8 7 7 7 5 5 5 4 4 7 8 7 8 5 6 5 4 2 2 1 1 0 1 2 2 2 3 2 2 3 4 5 5 5 5 5 6 7 8 10 11 10 9 9 9 9 9 9 8 9
4 0 5 14 11 12 13 7 3 6 4 3 6 4 2 3 4 5 10 7 4 5 7 7 8 9 8 8 8 8 9 10 8 4 6 8 4 3 2 3 6 7 9 8 8 7 7 5 5 6 6 4 3 2 2 1 1 1 1 2 2 2 2 2 3 4 4 5 6 5 6 6 6 9 9 8 10 10 9 8 10 10 9 10 9 8
3 2 3 2 8 9 7 7 10 7 6 7 4 5 5 4 3 9 7 4 7 7 7 10 9 8 9 11 10 10 11 9 1 2 5 7 10 6 5 6 7 5 3 4 7 7 7 6 6 6 4 3 3 3 2 2 1 1 2 1 3 3 2 3 4 4 4 5 6 6 7 7 7 7 8 8 8 10 10 9 9 9 10 9 8 11
10 8 7 9 4 0 2 8 6 10 4 10 7 2 1 4 7 5 3 2 4 6 9 7 8 7 9 9 11 12 10 4 6 6 8 7 6 7 8 9 10 11 10 8 4 3 7 7 6 5 4 3 3 2 1 2 0 1 2 3 4 3 3 3 4 5 5 6 6 7 7 7 7 8 7 8 8 10 11 9 9 9 8 10 10 10
4 5 3 4 5 6 8 9 10 6 4 6 10 7 5 11 7 5 4 4 4 5 6 7 7 9 9 12 11 10 9 7 4 3 4 6 6 6 8 8 6 7 6 4 5 7 5 6 5 4 3 2 2 1 0 0 0 1 2 5 3 3 3 3 4 4 6 6 7 7 7 7 7 7 7 8 9 9 10 10 9 8 8 9 9 10
8 9 8 7 5 8 8 8 3 2 6 7 9 8 7 11 9 6 6 6 6 6 5 5 8 8 10 11 11 10 9 8 8 8 9 10 10 9 10 10 11 11 11 10 8 5 4 7 5 5 2 2 1 0 0 0 1 2 3 4 2 3 4 4 4 5 6 7 7 7 7 7 7 8 7 8 7 9 9 10 8 9 8 8 9 9
4 6 1 2 4 3 4 4 1 2 3 8 8 9 9 8 5 6 7 5 4 6 8 8 8 8 8 8 8 6 7 8 8 6 7 7 9 7 5 6 5 6 7 7 5 5 5 5 4 4 2 1 1 1 1 1 1 3 4 3 3 4 4 4 5 6 8 7 6 7 7 8 8 7 7 7 7 7 8 9 9 8 9 9 9 9
5 2 2 3 3 4 8 3 6 7 4 7 12 12 7 5 4 6 5 6 7 6 6 6 8 9 10 9 11 12 11 9 9 9 8 7 7 8 10 10 9 9 10 8 7 7 5 4 3 2 1 1 1 2 2 2 2 3 4 4 4 4 4 5 5 7 7 7 8 7 7 8 8 8 7 6 7 7 8 8 7 7 9 10 10 10
6 5 4 7 5 6 7 6 9 9 7 7 10 10 10 12 8 6 8 8 8 6 6 9 7 6 3 5 9 10 12 10 9 9 7 8 8 9 9 9 9 7 4 7 7 5 5 3 2 1 1 1 2 1 2 2 3 3 4 4 4 4 4 5 5 7 7 8 7 7 7 7 8 9 8 7 7 8 9 7 6 7 9 11 10 10
4 5 4 5 8 7 3 7 9 2 4 9 7 5 8 8 8 7 7 8 8 8 8 5 5 8 7 10 8 9 9 10 9 10 10 7 6 7 9 8 7 8 9 8 4 4 3 3 2 2 2 2 1 2 2 3 3 4 4 4 4 4 4 5 5 6 7 7 6 7 6 7 7 8 8 9 8 7 8 10 8 8 10 12 10 9
3 9 4 4 6 3 8 13 8 3 7 11 14 15 13 11 7 8 7 6 7 8 8 8 8 8 8 8 9 8 10 11 9 7 9 9 10 9 7 8 7 8 7 5 5 4 4 4 3 2 2 2 2 2 3 3 4 4 4 4 4 4 4 5 6 6 7 6 6 7 7 7 7 7 8 8 9 9 9 12 19 14 12 12 19 25
11 15 9 10 10 9 13 14 10 10 10 12 8 5 10 9 9 10 11 11 10 10 10 9 9 6 6 10 8 9 10 11 10 8 7 6 7 6 8 10 10 7 7 5 4 3 3 2 2 1 1 2 2 2 3 3 4 4 4 4 4 3 4 4 5 6 7 7 6 8 8 8 8 8 7 8 8 8 10 11 12 19 21 20 21 22
Wind_Direction
126 144 171 198 219 213 213 204 210 221 211 255 5 228 257 252 278 272 272 262 148 311 241 255 284 262 278 284 291 36 72 32 85 106 99 89 85 82 80 76 71 60 59 19 26 26 24 26 27 31 34 35 39 36 33 35 32 32 30 33 31 19 25 30 25 24 30 24 19 32 37 42 22 25 23 31 17 26 19 28 54 60 65 91 123 133
101 197 228 219 217 211 214 216 224 262 293 237 262 275 276 243 263 256 262 311 316 186 286 334 325 293 283 290 357 7 46 24 83 104 95 95 87 83 83 81 69 70 51 31 36 30 32 31 31 33 34 31 36 27 31 34 31 29 28 34 29 22 26 28 26 27 41 28 39 70 43 69 42 30 29 19 14 359 12 27 28 30 41 84 106 102
186 205 226 229 227 233 279 264 182 202 242 242 217 243 279 266 261 280 269 309 281 139 261 304 327 286 285 347 27 42 53 45 47 78 94 102 97 90 82 80 77 65 52 40 41 36 34 34 35 38 37 36 38 36 34 31 36 31 31 30 30 28 27 23 20 27 25 16 34 52 32 33 56 55 57 53 20 19 15 22 12 18 41 35 0 27
239 268 245 243 216 215 266 232 187 223 217 214 243 218 237 234 269 299 281 309 308 147 277 305 315 279 297 76 60 31 66 65 57 65 62 51 84 86 77 76 83 71 58 51 37 33 31 36 37 38 36 31 35 34 31 28 31 33 31 30 32 31 30 26 20 23 20 37 45 50 55 44 68 50 14 30 26 15 14 0 358 12 3 16 21 22
211 214 219 238 165 183 225 247 213 229 252 233 213 228 240 244 227 190 251 315 310 341 46 359 319 317 261 149 63 77 69 75 63 77 70 58 61 69 75 65 50 64 57 59 47 40 36 39 36 38 39 38 39 34 32 28 28 31 31 31 36 38 35 32 25 22 21 30 31 26 33 38 31 24 23 23 14 11 7 5 2 344 341 360 25 22
265 258 128 147 165 176 195 259 243 187 237 284 222 206 223 223 235 243 334 5 14 337 322 79 336 305 315 104 133 142 64 67 40 73 71 67 63 66 73 70 56 55 48 60 54 48 44 46 41 35 34 41 40 34 26 32 34 31 32 34 37 42 39 34 30 27 34 38 39 37 40 35 30 32 23 18 4 0 10 352 341 5 4 351 347 3
217 237 166 210 155 172 186 208 237 143 206 194 271 198 219 222 216 214 210 87 287 222 290 55 251 273 317 355 164 129 93 79 51 57 71 67 62 66 71 67 62 57 52 45 51 47 49 38 48 42 39 33 40 29 17 35 37 33 33 36 42 44 43 37 35 33 38 45 42 48 55 55 50 47 25 10 12 16 2 11 19 7 10 10 5 351
179 239 214 198 170 156 180 259 230 163 154 230 248 148 133 135 159 202 147 165 228 268 300 5 128 258 295 278 159 148 109 105 92 74 73 71 76 72 77 68 63 56 52 57 53 51 50 49 47 49 38 37 38 24 29 37 36 33 27 32 39 43 43 38 35 39 37 47 42 44 46 46 42 38 20 10 9 17 17 25 17 13 10 8 15 11
162 240 171 200 196 197 218 226 183 161 148 215 197 140 132 158 177 121 103 151 208 19 280 317 6 302 259 268 105 148 122 135 162 158 152 131 105 97 80 68 64 57 51 55 66 55 45 43 41 43 43 29 35 30 31 34 37 35 32 34 40 43 42 37 39 43 39 45 46 49 43 45 34 31 22 7 22 24 15 29 17 17 7 8 7 12
309 196 220 167 155 209 220 233 168 159 190 264 159 89 69 63 60 100 103 80 337 57 256 190 177 224 273 265 152 261 147 184 185 176 171 178 149 116 97 80 67 57 54 47 52 55 51 40 38 27 43 42 33 29 32 36 38 37 37 37 41 38 37 36 40 44 44 44 46 50 46 50 37 28 25 33 29 25 17 29 21 15 15 5 3 3
249 323 159 123 196 212 142 129 155 202 158 117 86 63 7 43 37 28 66 88 38 266 247 195 199 180 277 246 193 173 216 175 146 152 172 171 128 114 109 103 95 80 63 58 54 45 47 33 38 28 46 37 34 31 37 36 34 32 35 36 44 35 35 35 38 41 43 43 44 49 47 49 44 35 35 33 28 20 23 23 15 17 7 7 6 360
341 348 159 255 68 81 106 78 16 53 86 116 94 115 42 334 7 31 347 44 132 268 258 231 197 177 203 289 262 259 300 172 162 169 173 169 167 157 140 114 93 79 68 58 56 41 31 40 35 39 41 37 35 38 36 35 33 36 34 37 49 39 34 34 35 43 44 44 44 46 45 45 40 38 38 37 31 21 24 17 15 5 12 13 5 7
302 233 248 315 228 145 160 97 321 18 19 86 92 69 128 257 38 316 31 276 207 227 262 108 133 80 244 224 253 309 329 168 169 164 163 160 159 154 143 127 109 91 78 66 58 48 44 46 36 34 31 37 36 38 37 38 39 38 39 38 50 39 30 32 32 40 38 39 36 36 39 41 40 41 42 38 35 21 24 16 17 15 13 3 10 3
277 280 324 269 335 207 132 160 221 189 220 117 151 146 99 203 213 248 259 235 305 292 257 130 185 255 252 313 28 319 314 309 121 133 142 151 150 151 146 136 111 93 93 92 78 68 59 50 50 41 40 42 39 36 37 36 39 35 38 35 52 46 35 33 36 35 38 36 32 31 35 36 36 38 38 35 33 18 22 18 19 17 9 4 2 351
311 341 277 147 236 204 161 192 187 170 161 203 126 154 185 149 155 223 201 213 218 219 276 268 104 230 148 238 341 291 329 83 111 118 123 120 130 134 133 122 116 100 92 91 81 82 78 63 56 58 47 46 48 44 41 39 34 38 42 43 50 46 31 35 37 36 39 34 30 32 32 33 32 34 34 33 30 20 17 9 14 7 3 7 349 348
215 224 256 216 223 153 183 216 116 99 54 235 160 70 87 230 138 213 203 161 234 310 318 203 198 188 153 329 258 55 70 74 102 113 120 121 127 128 126 132 138 136 128 116 103 90 84 79 63 55 50 46 47 48 51 51 49 55 48 50 51 51 36 36 35 36 41 36 35 33 34 27 31 32 31 26 17 12 15 7 14 1 358 352 343 338
29 270 279 319 102 182 216 143 223 138 218 231 102 191 212 161 135 291 352 219 103 31 251 149 325 310 271 250 59 81 104 101 106 120 129 145 150 140 151 159 162 156 142 134 125 120 97 72 52 50 50 42 41 46 51 49 45 48 42 45 44 38 38 33 29 31 31 31 38 23 25 18 28 32 36 25 352 331 332 341 346 347 335 335 344 340
214 251 295 103 248 272 194 189 50 22 145 100 176 238 190 127 112 137 219 321 108 204 264 96 203 270 131 284 110 215 149 180 174 168 165 169 159 163 185 176 173 171 163 150 141 127 107 94 73 55 49 55 64 71 64 62 64 65 67 58 56 45 40 27 33 37 45 42 43 21 11 2 93 116 163 233 290 282 295 295 279 283 303 308 304 308
139 285 279 226 179 293 2 69 331 345 18 150 192 222 127 252 268 309 94 248 251 259 258 296 231 239 191 219 145 219 192 195 191 185 172 187 190 188 191 194 190 163 144 148 146 134 125 116 119 120 106 117 94 61 64 44 43 49 44 54 69 48 29 11 9 14 15 30 8 342 328 344 346 355 358 347 339 332 346 343 335 333 311 301 307 310
31 240 293 330 163 309 28 87 213 248 323 29 14 357 218 109 187 137 206 187 152 261 279 289 310 254 208 199 187 197 196 185 173 180 195 192 193 190 192 189 180 171 168 163 154 151 152 151 155 151 143 127 119 106 62 48 41 34 354 33 8 358 330 338 346 327 336 294 309 321 332 330 331 323 330 325 335 337 330 320 325 327 337 334 329 329
233 139 253 288 310 75 203 188 213 174 184 88 195 272 295 34 230 98 324 143 193 191 214 239 285 276 267 202 184 203 184 183 178 177 186 197 198 199 193 182 177 175 171 168 162 158 157 165 169 185 184 178 248 275 320 283 253 263 252 236 221 214 266 272 264 264 272 295 316 334 321 311 321 312 307 309 307 308 301 304 310 307 299 317 321 325
113 205 231 293 235 209 232 239 199 189 182 174 178 211 187 179 239 248 260 65 125 199 235 217 260 278 259 12 229 203 174 161 177 175 183 194 200 194 187 189 176 175 175 169 172 168 162 169 173 188 221 251 336 281 264 252 259 260 241 228 241 248 248 251 279 263 271 291 297 306 303 305 305 303 304 308 301 305 299 298 302 299 315 313 304 316
161 144 124 235 208 204 213 35 248 186 128 174 145 227 166 144 103 137 245 257 11 251 115 185 263 260 263 290 268 173 164 175 174 172 183 193 193 188 189 182 182 173 166 169 171 174 179 182 189 190 199 217 228 245 251 259 243 242 251 262 250 221 266 225 248 262 258 263 283 292 300 311 313 320 319 321 309 308 301 301 303 306 310 303 303 308
79 116 214 268 305 312 321 303 5 46 101 354 333 58 109 180 179 184 193 187 161 284 291 304 244 266 306 4 342 144 157 156 162 181 183 181 184 191 177 173 174 166 171 172 174 178 183 184 180 191 230 237 231 231 233 228 242 259 269 261 276 261 261 280 263 267 269 266 268 275 296 311 316 325 322 327 317 319 316 319 315 314 313 302 300 298
132 257 176 216 276 332 342 354 4 341 52 154 210 238 142 105 88 153 92 61 188 216 211 172 250 241 338 28 4 123 141 164 180 182 152 167 196 184 179 176 171 171 173 181 181 188 188 196 204 216 217 216 222 224 235 239 230 239 282 331 332 317 321 326 335 336 326 331 329 346 357 344 337 336 336 332 324 318 319 321 319 321 319 319 318 314
197 186 141 198 229 238 242 215 228 231 222 222 231 86 246 136 150 121 219 195 229 197 202 201 251 271 24 20 25 113 159 179 104 125 224 197 183 180 183 181 179 177 187 184 189 186 202 209 213 218 223 224 218 211 211 347 8 13 13 17 32 17 6 8 5 17 17 15 14 1 3 355 353 350 344 339 334 327 319 314 315 314 314 312 309 310
173 224 217 224 224 239 240 192 240 112 86 162 262 164 226 180 219 171 129 171 208 323 259 240 234 307 273 238 241 244 270 207 207 210 215 217 212 199 184 181 183 185 187 189 190 199 205 211 219 216 216 214 192 40 62 74 56 42 30 26 24 25 29 20 19 16 19 8 11 1 355 352 348 342 339 337 330 329 332 333 332 331 327 327 317 313
106 233 229 221 239 256 113 178 188 123 157 222 180 262 235 223 201 181 204 220 103 180 253 242 231 199 247 244 203 207 219 236 239 227 231 230 215 195 189 180 184 191 202 190 190 191 198 208 210 213 224 45 68 96 74 73 80 64 55 47 34 31 31 20 19 16 14 7 359 356 344 342 334 334 333 332 331 333 335 334 334 332 330 332 330 326
164 217 249 176 253 176 116 141 185 107 201 223 235 246 258 234 179 200 216 213 174 217 251 248 210 216 254 244 159 186 200 216 213 220 215 211 200 176 168 177 184 195 196 187 205 200 201 206 216 219 161 144 117 115 119 105 104 85 67 60 42 33 27 8 14 9 2 357 353 344 336 330 331 331 335 335 338 338 336 335 335 335 333 330 324 320
104 230 200 143 207 97 115 147 186 159 222 256 246 246 241 248 229 160 202 227 217 233 250 263 272 256 242 264 226 207 209 201 223 215 138 176 186 183 172 178 183 193 189 196 206 204 203 196 172 154 141 145 147 135 127 93 65 58 58 42 29 27 6 15 6 5 350 352 345 339 338 338 338 343 344 341 338 335 337 338 335 330 326 322 319 318
134 277 100 313 145 290 7 135 90 109 128 240 266 256 252 238 132 181 216 235 252 273 262 263 266 270 267 191 199 236 190 185 116 173 195 190 168 165 167 177 188 192 202 204 187 176 161 147 142 140 136 138 130 122 103 100 87 74 66 46 34 18 353 12 358 359 355 345 343 341 342 342 341 341 339 335 336 340 338 331 329 325 321 319 320 321
66 240 53 121 109 293 231 109 71 60 32 254 276 269 257 239 238 225 225 208 205 228 242 255 257 254 262 126 39 133 157 165 182 187 167 172 168 157 165 179 180 191 196 191 174 160 157 159 156 148 148 150 134 113 113 105 98 81 59 41 23 1 350 7 1 353 349 340 338 340 339 336 334 337 337 343 338 334 332 327 325 323 320 318 319 318
180 142 131 151 163 228 191 120 142 54 350 303 260 254 249 228 230 249 246 211 213 206 210 224 240 246 256 265 211 256 180 205 182 182 170 175 179 166 167 176 190 196 197 182 172 173 173 169 166 158 155 150 136 125 122 120 103 77 56 33 352 354 358 359 355 344 338 337 336 334 335 334 342 342 339 338 335 329 328 325 320 320 321 316 315 315
110 145 166 180 158 197 152 148 79 57 257 246 271 121 164 201 200 222 243 242 229 160 207 206 235 251 273 272 223 223 201 205 189 210 194 167 173 187 198 195 201 205 200 187 176 171 165 156 156 157 149 135 128 122 121 100 92 93 81 44 349 353 357 348 341 343 330 333 331 334 343 351 347 337 332 331 328 325 321 321 315 315 314 310 312 313
159 149 183 141 141 181 147 89 203 229 248 272 135 201 158 183 169 212 238 245 241 222 229 253 261 256 237 230 224 225 213 200 165 162 208 213 165 179 192 201 210 202 180 171 170 163 164 163 156 138 131 133 134 137 127 96 94 103 74 20 7 350 358 341 339 337 327 332 338 354 352 347 335 328 323 322 319 317 314 312 311 311 312 311 311 314
190 159 181 132 134 46 118 194 228 240 275 315 294 152 220 122 203 210 298 266 237 218 210 222 238 237 236 239 254 257 142 170 119 258 224 245 199 195 186 206 201 172 166 176 166 175 166 173 163 154 140 133 123 105 90 79 53 43 13 2 2 353 346 342 336 321 320 349 351 349 337 333 322 317 314 312 311 309 307 307 304 307 311 305 303 298
173 80 136 226 189 184 200 195 234 355 313 291 276 203 164 186 176 163 237 257 221 201 182 203 235 241 237 249 147 132 104 79 85 295 265 239 230 204 191 202 171 179 171 181 171 171 169 149 137 133 125 120 106 95 72 55 41 24 359 352 343 356 331 339 324 311 358 351 336 324 321 318 313 309 307 306 306 303 301 302 303 300 302 298 298 300
193 191 218 224 263 164 214 254 280 279 259 262 258 346 12 153 122 180 161 276 337 242 197 183 221 236 206 177 158 161 103 85 274 259 237 237 229 194 235 170 169 163 164 143 115 114 121 121 115 122 124 117 96 85 76 54 49 19 356 334 328 335 330 324 303 345 350 319 311 310 308 308 305 302 302 301 297 297 296 295 292 290 297 295 300 299
22 120 158 208 226 70 205 218 230 235 247 223 257 229 263 174 135 108 75 277 268 214 212 175 207 196 176 167 183 148 121 197 246 240 222 210 224 200 171 183 169 165 158 154 152 146 148 138 127 121 106 102 99 90 87 76 61 32 324 313 315 319 311 301 301 331 316 305 304 302 301 299 297 295 297 294 292 293 294 296 293 293 294 286 289 289
128 109 131 187 221 220 207 226 238 223 248 268 228 233 214 131 93 65 23 275 255 203 193 164 183 189 208 198 159 164 171 216 240 248 193 204 197 198 171 166 155 147 141 136 124 138 134 128 115 103 106 113 130 136 116 103 88 32 290 295 296 296 282 289 317 306 301 297 296 295 294 293 293 290 290 291 291 290 288 290 293 292 293 291 288 291
154 264 209 211 217 227 224 243 315 282 260 194 180 204 164 167 79 128 209 233 227 201 202 184 193 196 183 172 173 184 222 206 216 201 177 193 170 185 222 167 164 158 155 150 140 132 125 124 125 133 137 136 143 131 117 100 68 347 291 279 280 269 273 297 305 296 291 295 291 290 289 288 286 288 285 282 288 290 290 290 290 294 291 291 291 287
345 76 314 266 224 224 215 228 235 268 232 175 261 157 174 106 212 218 233 195 160 208 203 194 197 208 182 184 193 207 219 220 132 131 157 172 188 183 162 143 116 87 74 108 129 128 122 116 116 118 124 135 129 117 101 90 56 290 282 287 276 271 291 294 291 295 290 288 288 288 288 285 283 278 281 285 286 290 289 286 284 286 288 287 291 293
185 150 208 199 203 30 195 239 250 251 246 144 133 43 252 151 232 204 213 252 196 191 177 206 203 216 183 212 212 213 226 213 190 186 188 181 181 169 162 156 157 158 155 144 131 144 135 133 141 146 151 141 122 99 94 94 45 272 274 275 275 287 290 288 292 290 285 286 288 286 285 283 280 282 282 284 284 285 288 289 289 286 285 290 294 292
197 120 236 247 180 171 192 200 210 223 144 179 140 186 209 205 208 186 152 239 209 179 187 193 216 211 199 201 211 225 230 221 242 218 191 199 198 189 179 173 156 142 138 132 141 150 136 132 142 142 151 136 110 109 89 120 246 268 276 275 285 291 293 296 290 287 289 288 286 286 283 280 279 276 280 281 284 282 284 291 290 289 290 294 294 292
199 192 175 182 206 159 202 214 234 181 171 196 188 210 207 217 216 179 175 188 181 228 197 187 219 217 204 209 214 209 216 218 216 199 184 197 195 188 183 182 169 166 162 155 154 149 139 148 155 148 155 151 121 186 175 199 208 276 278 277 296 294 294 291 290 292 287 286 285 284 284 283 281 284 280 278 278 286 289 290 293 297 297 294 289 285
261 207 114 80 251 253 269 183 224 283 181 197 217 213 218 230 221 167 183 214 234 212 173 193 217 215 212 210 212 238 221 223 216 217 212 203 190 193 155 137 133 136 137 134 137 145 138 131 131 138 154 236 183 209 203 231 226 267 269 289 297 293 290 292 296 292 287 287 287 286 291 293 288 280 275 276 276 276 282 286 296 295 296 291 283 282
254 137 164 197 263 145 255 168 183 219 202 195 212 227 240 243 213 174 199 213 227 221 210 220 215 212 210 194 202 218 230 225 223 222 209 197 185 177 174 173 172 164 160 157 156 140 134 135 135 148 165 202 230 188 238 247 254 248 275 288 286 288 293 294 291 288 290 292 294 294 292 292 295 296 291 288 286 282 283 286 283 290 291 286 284 281
299 167 153 227 223 194 229 219 219 224 205 204 202 213 227 239 236 204 203 215 221 229 211 219 210 232 197 193 209 214 232 229 216 221 207 200 190 180 179 177 164 148 142 136 138 137 129 124 142 169 185 211 218 213 250 263 267 271 279 281 284 285 293 292 287 290 294 297 297 298 297 294 291 293 299 295 295 297 295 284 282 287 287 285 281 281
188 90 221 184 206 227 291 280 249 252 304 273 249 227 232 223 226 239 228 229 234 237 238 235 193 212 206 224 213 213 230 240 217 211 202 197 183 181 187 172 165 155 146 140 148 139 143 147 157 183 178 224 224 237 263 268 276 280 282 282 286 286 292 288 290 291 293 293 296 296 298 294 296 298 297 298 291 279 283 294 295 284 274 269 259 256
74 244 203 112 225 159 195 232 214 194 254 247 237 226 225 226 211 228 241 241 236 238 238 232 237 228 227 226 225 217 223 238 224 196 199 195 190 184 161 151 149 145 142 137 131 137 138 152 158 169 190 227 224 240 256 272 280 280 274 277 276 280 287 291 296 297 297 299 300 300 302 302 299 298 297 295 298 298 290 285 299 298 295 290 290 291
204 226 187 200 208 225 226 231 217 208 233 244 246 219 209 216 206 222 234 236 237 227 228 232 249 249 227 237 223 213 223 226 223 187 192 189 192 167 159 153 152 154 152 146 127 131 138 166 157 163 207 238 234 250 261 279 279 280 279 270 277 278 281 289 297 296 297 305 304 305 306 305 302 299 297 296 299 298 301 306 305 303 299 293 293 295